Monroe, WI

6:31 PM CST on November 20, 2019 (GMT -0600)
Monroe Municipal

Weather History for KEFT - October, 2019

Change the Weather History Date:

Tuesday, October 22, 2019

  Actual Average Record
Temperature  
Mean Temperature 46 °F -  
Max Temperature 47 °F 0 °F 68 °F (2000)
Min Temperature 42 °F - 28 °F (1998)
Degree Days  
Heating Degree Days 19    
Moisture  
Dew Point 37 °F    
Average Humidity 75    
Maximum Humidity 95    
Minimum Humidity 53    
Precipitation  
Precipitation 0.01 in - - ()
Sea Level Pressure  
Sea Level Pressure 29.54 in    
Wind  
Wind Speed 25 mph (WSW)    
Max Wind Speed 37 mph    
Max Gust Speed 48 mph    
Visibility 9 miles    
Events Rain    
Averages and records for this station are not official NWS values.
T = Trace of Precipitation, MM = Missing Value Source: NWS Daily Summary

Daily Weather History Graph

Daily Weather History Graph

Search for Another Location

Airport or City:

Astronomy

Oct. 22, 2019 Rise Set
Actual Time 7:19 AM CDT 6:05 PM CDT
Civil Twilight 6:50 AM CDT 6:34 PM CDT
Nautical Twilight 6:17 AM CDT 7:06 PM CDT
Astronomical Twilight 5:45 AM CDT 7:39 PM CDT
Moon 12:18 AM CDT (10/22) 3:24 PM CDT (10/22)
Length of Visible Light 11h 43m
Length of Day
10h 45m
Last Quarter, 37% of the Moon is Illuminated
Oct 22
Last Quarter
Oct 27
New
Nov 4
First Quarter
Nov 12
Full
Nov 19
Last Quarter

Hourly Weather History & Observations

Time (CDT) Temp. Windchill Dew Point Humidity Pressure Visibility Wind Dir Wind Speed Gust Speed Precip Events Conditions
12:15 AM 50.0 °F - 40.8 °F 71% 29.36 in 10.0 mi SSW 27.6 mph 39.1 mph N/A   Overcast
12:35 AM 48.6 °F - 41.5 °F 77% 29.37 in 10.0 mi SW 36.8 mph 48.3 mph N/A Rain Light Rain
12:55 AM 46.4 °F 38.1 °F 40.3 °F 79% 29.37 in 10.0 mi SW 24.2 mph 40.3 mph N/A   Overcast
1:15 AM 46.4 °F 38.1 °F 39.6 °F 77% 29.37 in 10.0 mi SW 24.2 mph 40.3 mph N/A   Overcast
1:35 AM 46.4 °F 38.3 °F 39.0 °F 75% 29.37 in 10.0 mi SSW 23.0 mph 31.1 mph N/A   Overcast
1:55 AM 46.4 °F 38.3 °F 39.4 °F 77% 29.36 in 10.0 mi SSW 23.0 mph 32.2 mph N/A   Overcast
2:15 AM 46.6 °F - 39.7 °F 77% 29.35 in 10.0 mi SSW 24.2 mph 33.4 mph N/A   Overcast
2:35 AM 45.9 °F 37.4 °F 41.0 °F 83% 29.35 in 7.0 mi SSW 24.2 mph 36.8 mph N/A   Light Drizzle
2:55 AM 45.5 °F 36.9 °F 41.5 °F 86% 29.34 in 10.0 mi SSW 24.2 mph 35.7 mph N/A   Overcast
3:15 AM 45.9 °F 37.4 °F 40.6 °F 82% 29.34 in 10.0 mi SW 24.2 mph 36.8 mph N/A   Overcast
3:35 AM 45.5 °F 36.9 °F 41.0 °F 84% 29.34 in 7.0 mi SW 24.2 mph 35.7 mph N/A Rain Light Rain
3:55 AM 45.5 °F 36.1 °F 41.4 °F 85% 29.33 in 10.0 mi SW 28.8 mph 39.1 mph N/A   Overcast
4:15 AM 45.3 °F 36.7 °F 41.2 °F 85% 29.34 in 5.0 mi SW 24.2 mph 36.8 mph N/A Rain Rain
4:35 AM 44.8 °F 35.9 °F 42.6 °F 92% 29.34 in 7.0 mi SW 24.2 mph 34.5 mph 0.01 in   Light Drizzle
4:55 AM 44.6 °F 35.9 °F 41.4 °F 88% 29.35 in 7.0 mi SW 23.0 mph 38.0 mph 0.01 in Rain Light Rain
5:15 AM 44.6 °F 35.3 °F 41.2 °F 88% 29.36 in 10.0 mi SW 26.5 mph 38.0 mph N/A Rain Light Rain
5:35 AM 44.6 °F 36.4 °F 40.5 °F 85% 29.37 in 10.0 mi SW 20.7 mph 32.2 mph N/A   Overcast
6:15 AM 44.1 °F 35.0 °F 40.6 °F 88% 29.38 in 10.0 mi WSW 24.2 mph 35.7 mph N/A   Overcast
6:35 AM 43.7 °F 34.5 °F 41.0 °F 90% 29.39 in 7.0 mi WSW 24.2 mph 35.7 mph N/A   Overcast
6:55 AM 43.7 °F 33.9 °F 41.4 °F 91% 29.40 in 7.0 mi WSW 27.6 mph 38.0 mph N/A   Overcast
7:15 AM 43.3 °F 33.0 °F 41.0 °F 91% 29.41 in 7.0 mi WSW 29.9 mph 36.8 mph N/A   Overcast
7:35 AM 43.0 °F 33.5 °F 41.2 °F 93% 29.41 in 5.0 mi WSW 24.2 mph 40.3 mph N/A   Overcast
7:55 AM 42.8 °F 33.8 °F 41.4 °F 95% 29.43 in 3.0 mi WSW 21.9 mph 31.1 mph N/A   Overcast
8:15 AM 43.0 °F 32.7 °F 41.2 °F 93% 29.44 in 7.0 mi WSW 28.8 mph 38.0 mph N/A   Overcast
8:35 AM 43.3 °F 33.6 °F 41.0 °F 91% 29.45 in 10.0 mi WSW 26.5 mph 34.5 mph N/A   Overcast
8:55 AM 43.7 °F 35.7 °F 40.8 °F 90% 29.46 in 10.0 mi WSW 18.4 mph 36.8 mph N/A   Overcast
9:15 AM 44.1 °F 34.6 °F 39.6 °F 84% 29.47 in 10.0 mi West 26.5 mph 38.0 mph N/A   Overcast
9:35 AM 43.7 °F 34.3 °F 38.8 °F 83% 29.48 in 10.0 mi WSW 25.3 mph 31.1 mph N/A   Overcast
9:55 AM 43.2 °F 34.0 °F 40.5 °F 90% 29.48 in 7.0 mi WSW 23.0 mph 34.5 mph N/A   Overcast
10:15 AM 43.0 °F 33.1 °F 40.5 °F 91% 29.50 in 5.0 mi WSW 26.5 mph 36.8 mph N/A   Overcast
10:35 AM 43.3 °F 34.5 °F 39.4 °F 86% 29.51 in 10.0 mi WSW 21.9 mph 31.1 mph N/A   Overcast
10:55 AM 43.2 °F 34.5 °F 39.2 °F 86% 29.51 in 7.0 mi WSW 20.7 mph 35.7 mph N/A   Overcast
11:15 AM 43.5 °F 34.3 °F 39.0 °F 84% 29.53 in 10.0 mi West 24.2 mph 33.4 mph N/A   Overcast
11:35 AM 43.7 °F 34.7 °F 38.3 °F 81% 29.54 in 10.0 mi WSW 23.0 mph 33.4 mph N/A   Overcast
12:35 PM 43.7 °F 34.5 °F 38.1 °F 81% 29.56 in 10.0 mi WSW 24.2 mph 34.5 mph N/A   Overcast
12:55 PM 43.0 °F 33.8 °F 38.5 °F 84% 29.56 in 10.0 mi WSW 23.0 mph 35.7 mph N/A   Overcast
1:15 PM 43.7 °F 34.3 °F 38.3 °F 81% 29.57 in 10.0 mi West 25.3 mph 34.5 mph N/A   Overcast
1:35 PM 43.7 °F 34.5 °F 37.4 °F 78% 29.57 in 10.0 mi West 24.2 mph 35.7 mph N/A   Overcast
1:55 PM 44.4 °F 35.3 °F 37.4 °F 76% 29.58 in 10.0 mi WSW 25.3 mph 32.2 mph N/A   Overcast
2:55 PM 44.6 °F 35.9 °F 37.4 °F 76% 29.60 in 10.0 mi WSW 23.0 mph 32.2 mph N/A   Overcast
3:15 PM 44.6 °F 35.1 °F 36.5 °F 73% 29.60 in 10.0 mi WSW 27.6 mph 36.8 mph N/A   Overcast
3:35 PM 45.0 °F 35.8 °F 36.3 °F 72% 29.61 in 10.0 mi WSW 26.5 mph 38.0 mph N/A   Overcast
3:55 PM 45.9 °F 36.4 °F 36.1 °F 69% 29.62 in 10.0 mi WSW 29.9 mph 38.0 mph N/A   Overcast
4:15 PM 46.4 °F 37.2 °F 35.4 °F 66% 29.63 in 10.0 mi WSW 29.9 mph 40.3 mph N/A   Overcast
4:35 PM 47.5 °F - 35.8 °F 64% 29.63 in 10.0 mi WSW 25.3 mph 36.8 mph N/A   Overcast
4:55 PM 47.3 °F - 35.6 °F 64% 29.64 in 10.0 mi WSW 27.6 mph 38.0 mph N/A   Overcast
5:15 PM 47.7 °F - 35.6 °F 63% 29.65 in 10.0 mi WSW 26.5 mph 36.8 mph N/A   Overcast
5:35 PM 47.1 °F - 35.6 °F 64% 29.65 in 10.0 mi WSW 21.9 mph 31.1 mph N/A   Mostly Cloudy
5:55 PM 47.1 °F - 35.2 °F 63% 29.66 in 10.0 mi WSW 23.0 mph 33.4 mph N/A   Mostly Cloudy
6:15 PM 47.3 °F - 35.2 °F 63% 29.67 in 10.0 mi WSW 24.2 mph 32.2 mph N/A   Mostly Cloudy
6:35 PM 47.3 °F - 35.1 °F 62% 29.68 in 10.0 mi WSW 21.9 mph 28.8 mph N/A   Overcast
6:55 PM 47.5 °F - 34.7 °F 61% 29.69 in 10.0 mi WSW 23.0 mph 26.5 mph N/A   Overcast
7:15 PM 47.7 °F - 34.0 °F 59% 29.69 in 10.0 mi WSW 20.7 mph 25.3 mph N/A   Overcast
7:35 PM 47.7 °F - 33.3 °F 57% 29.70 in 10.0 mi WSW 21.9 mph 28.8 mph N/A   Overcast
7:55 PM 47.7 °F - 32.4 °F 55% 29.71 in 10.0 mi WSW 20.7 mph 33.4 mph N/A   Overcast
8:15 PM 47.7 °F - 32.0 °F 55% 29.71 in 10.0 mi WSW 23.0 mph 31.1 mph N/A   Overcast
8:35 PM 47.7 °F - 31.1 °F 53% 29.72 in 10.0 mi WSW 21.9 mph 33.4 mph N/A   Overcast
8:55 PM 46.9 °F - 30.4 °F 53% 29.73 in 10.0 mi West 24.2 mph 35.7 mph N/A   Mostly Cloudy
9:15 PM 46.0 °F 37.2 °F 29.7 °F 53% 29.73 in 10.0 mi West 26.5 mph 31.1 mph N/A   Scattered Clouds
9:35 PM 45.7 °F 36.9 °F 29.7 °F 54% 29.73 in 10.0 mi WSW 25.3 mph 32.2 mph N/A   Clear
9:55 PM 44.8 °F 36.6 °F 29.8 °F 56% 29.74 in 10.0 mi WSW 20.7 mph 27.6 mph N/A   Clear
10:15 PM 44.1 °F 36.5 °F 30.0 °F 58% 29.75 in 10.0 mi WSW 17.3 mph 23.0 mph N/A   Clear
10:35 PM 43.7 °F 36.0 °F 30.6 °F 60% 29.75 in 10.0 mi WSW 17.3 mph 23.0 mph N/A   Clear
10:55 PM 43.2 °F 34.7 °F 30.6 °F 61% 29.75 in 10.0 mi WSW 19.6 mph - N/A   Clear
11:15 PM 42.8 °F 34.3 °F 30.4 °F 62% 29.75 in 10.0 mi WSW 19.6 mph 25.3 mph N/A   Clear
11:35 PM 42.6 °F 34.9 °F 30.6 °F 62% 29.75 in 10.0 mi WSW 16.1 mph 24.2 mph N/A   Clear
11:55 PM 42.3 °F 33.8 °F 30.6 °F 63% 29.75 in 10.0 mi WSW 18.4 mph 24.2 mph N/A   Clear